Location: Champseau
(45.8333°N, 1.7667°E)
Time: 06:41:26
(UTC+00:00)

SL-8 R/B - Pass Details

Date: 18 April 2021
Orbit: 657 x 667 km, 48.4° (Epoch: 15 May)

Event Time Altitude Azimuth Distance (km) Brightness Sun altitude
Rises 19:37:44 0° 287° (WNW) 3,005 9.1 -9.5°
Reaches altitude 10° 19:40:06 10° 288° (WNW) 2,091 7.8 -9.9°
Maximum altitude 19:44:56 84° 16° (NNE) 675 3.7 -10.6°
Enters shadow 19:48:58 15° 105° (ESE) 1,777 5.3 -11.3°
